When you browse on this site, cookies collect data to enhance your experience and personalize the content and advertising you see.
Visit our Privacy Policy to learn more. By continuing to use the site, you agree to this use of cookies and data.

Meteo pe oră la Dziecielec

Astăzi, 25 Septembrie, Vineri

Timp Temperatura Precipitaţii Vânt Presiune Umiditate
00:00 +15°C° 0 mm 1 m/s 740 mmHg 87%
01:00 +15°C° 0 mm 1 m/s 740 mmHg 89%
02:00 +15°C° 0 mm 2 m/s 739 mmHg 89%
03:00 +15°C° 0 mm 2 m/s 739 mmHg 89%
04:00 +15°C° 0 mm 2 m/s 739 mmHg 89%
05:00 +14°C° 0 mm 3 m/s 738 mmHg 86%
06:00 +14°C° 0 mm 3 m/s 738 mmHg 83%
07:00 +15°C° 0 mm 4 m/s 737 mmHg 79%
08:00 +17°C° 0 mm 5 m/s 737 mmHg 73%
09:00 +19°C° 0 mm 5 m/s 736 mmHg 67%
10:00 +21°C° 0 mm 6 m/s 736 mmHg 61%
11:00 +22°C° 0 mm 6 m/s 735 mmHg 57%
12:00 +23°C° 0 mm 7 m/s 735 mmHg 53%
13:00 +24°C° 0 mm 7 m/s 734 mmHg 49%
14:00 +24°C° 0 mm 6 m/s 734 mmHg 51%
15:00 +23°C° 0 mm 6 m/s 733 mmHg 53%
16:00 +23°C° 0 mm 6 m/s 733 mmHg 55%
17:00 +21°C° 0.7 mm 5 m/s 733 mmHg 66%
18:00 +19°C° 0.7 mm 4 m/s 733 mmHg 77%
19:00 +17°C° 0.7 mm 3 m/s 733 mmHg 88%
20:00 +17°C° 1 mm 3 m/s 733 mmHg 90%
21:00 +16°C° 1 mm 3 m/s 733 mmHg 91%
22:00 +16°C° 1 mm 2 m/s 733 mmHg 93%
23:00 +16°C° 0.3 mm 2 m/s 733 mmHg 93%

Mâine, 26 Septembrie, Sâmbătă

Timp Temperatura Precipitaţii Vânt Presiune Umiditate
00:00 +15°C° 0.3 mm 2 m/s 733 mmHg 93%
01:00 +15°C° 0.3 mm 2 m/s 733 mmHg 93%
02:00 +15°C° 0.1 mm 2 m/s 733 mmHg 93%
03:00 +14°C° 0.1 mm 2 m/s 733 mmHg 94%
04:00 +14°C° 0.1 mm 1 m/s 733 mmHg 95%
05:00 +14°C° 0 mm 2 m/s 733 mmHg 95%
06:00 +15°C° 0 mm 2 m/s 733 mmHg 94%
07:00 +14°C° 0 mm 3 m/s 733 mmHg 94%
08:00 +16°C° 0 mm 3 m/s 733 mmHg 92%
09:00 +17°C° 0 mm 3 m/s 733 mmHg 90%
10:00 +17°C° 0 mm 3 m/s 733 mmHg 88%
11:00 +19°C° 0 mm 4 m/s 733 mmHg 82%
12:00 +20°C° 0 mm 5 m/s 733 mmHg 75%
13:00 +21°C° 0 mm 5 m/s 733 mmHg 69%
14:00 +21°C° 0.2 mm 5 m/s 733 mmHg 70%
15:00 +21°C° 0.2 mm 4 m/s 733 mmHg 72%
16:00 +21°C° 0.2 mm 4 m/s 733 mmHg 73%
17:00 +20°C° 0 mm 4 m/s 734 mmHg 76%
18:00 +19°C° 0 mm 4 m/s 734 mmHg 80%
19:00 +19°C° 0 mm 4 m/s 734 mmHg 83%
20:00 +18°C° 0.3 mm 4 m/s 734 mmHg 85%
21:00 +18°C° 0.3 mm 4 m/s 735 mmHg 87%
22:00 +18°C° 0.3 mm 4 m/s 735 mmHg 89%
23:00 +18°C° 0.1 mm 4 m/s 735 mmHg 88%

Poimâine, 27 Septembrie, Duminică

Timp Temperatura Precipitaţii Vânt Presiune Umiditate
00:00 +18°C° 0.1 mm 4 m/s 735 mmHg 87%
01:00 +16°C° 0.1 mm 5 m/s 735 mmHg 85%
02:00 +16°C° 0 mm 5 m/s 735 mmHg 83%
03:00 +17°C° 0 mm 5 m/s 736 mmHg 81%
04:00 +17°C° 0 mm 5 m/s 736 mmHg 79%
05:00 +16°C° 0 mm 5 m/s 736 mmHg 78%
06:00 +16°C° 0 mm 5 m/s 736 mmHg 77%
07:00 +16°C° 0 mm 5 m/s 736 mmHg 75%
08:00 +17°C° 0 mm 6 m/s 736 mmHg 72%
09:00 +19°C° 0 mm 6 m/s 737 mmHg 68%
10:00 +20°C° 0 mm 7 m/s 737 mmHg 64%
11:00 +20°C° 0 mm 6 m/s 737 mmHg 64%
12:00 +20°C° 0 mm 6 m/s 737 mmHg 63%
13:00 +20°C° 0 mm 6 m/s 737 mmHg 62%
14:00 +20°C° 0 mm 6 m/s 737 mmHg 62%
15:00 +20°C° 0 mm 6 m/s 737 mmHg 62%
16:00 +20°C° 0 mm 6 m/s 736 mmHg 62%
17:00 +20°C° 0 mm 6 m/s 737 mmHg 64%
18:00 +19°C° 0 mm 6 m/s 737 mmHg 66%
19:00 +17°C° 0 mm 6 m/s 737 mmHg 68%
20:00 +17°C° 0 mm 6 m/s 737 mmHg 70%
21:00 +17°C° 0 mm 6 m/s 737 mmHg 73%
22:00 +16°C° 0 mm 6 m/s 737 mmHg 75%
23:00 +16°C° 0 mm 5 m/s 737 mmHg 79%

28 Septembrie, Luni

Timp Temperatura Precipitaţii Vânt Presiune Umiditate
00:00 +15°C° 0 mm 5 m/s 737 mmHg 82%
01:00 +14°C° 0 mm 4 m/s 738 mmHg 86%
02:00 +14°C° 0 mm 4 m/s 738 mmHg 86%
03:00 +14°C° 0 mm 4 m/s 738 mmHg 86%
04:00 +13°C° 0 mm 4 m/s 738 mmHg 87%
05:00 +13°C° 0 mm 4 m/s 738 mmHg 84%
06:00 +12°C° 0 mm 5 m/s 738 mmHg 81%
07:00 +12°C° 0 mm 5 m/s 738 mmHg 78%
08:00 +12°C° 0 mm 5 m/s 739 mmHg 77%
09:00 +11°C° 0 mm 6 m/s 739 mmHg 76%
10:00 +13°C° 0 mm 6 m/s 739 mmHg 75%
11:00 +11°C° 0.2 mm 6 m/s 739 mmHg 78%
12:00 +11°C° 0.2 mm 6 m/s 739 mmHg 81%
13:00 +11°C° 0.2 mm 6 m/s 740 mmHg 84%
14:00 +10°C° 0.4 mm 6 m/s 740 mmHg 85%
15:00 +10°C° 0.4 mm 6 m/s 740 mmHg 86%
16:00 +10°C° 0.4 mm 7 m/s 740 mmHg 88%
17:00 +10°C° 0.1 mm 6 m/s 740 mmHg 88%
18:00 +10°C° 0.1 mm 6 m/s 740 mmHg 89%
19:00 +10°C° 0.1 mm 6 m/s 741 mmHg 89%
20:00 +10°C° 0.1 mm 6 m/s 741 mmHg 88%
21:00 +10°C° 0.1 mm 6 m/s 741 mmHg 86%
22:00 +10°C° 0.1 mm 6 m/s 741 mmHg 85%
23:00 +9°C° 0 mm 6 m/s 741 mmHg 84%

29 Septembrie, Marţi

Timp Temperatura Precipitaţii Vânt Presiune Umiditate
00:00 +9°C° 0 mm 5 m/s 741 mmHg 83%
01:00 +9°C° 0 mm 5 m/s 742 mmHg 82%
02:00 +9°C° 0 mm 5 m/s 742 mmHg 83%
03:00 +8°C° 0 mm 5 m/s 742 mmHg 84%
04:00 +8°C° 0 mm 5 m/s 742 mmHg 85%
05:00 +8°C° 0 mm 4 m/s 742 mmHg 85%
06:00 +8°C° 0 mm 4 m/s 742 mmHg 84%
07:00 +8°C° 0 mm 4 m/s 743 mmHg 84%
08:00 +11°C° 0 mm 3 m/s 743 mmHg 77%
09:00 +12°C° 0 mm 3 m/s 743 mmHg 70%
10:00 +14°C° 0 mm 3 m/s 743 mmHg 63%
11:00 +16°C° 0 mm 2 m/s 744 mmHg 60%
12:00 +17°C° 0 mm 2 m/s 744 mmHg 57%
13:00 +17°C° 0 mm 2 m/s 744 mmHg 53%
14:00 +17°C° 0 mm 2 m/s 744 mmHg 57%
15:00 +17°C° 0 mm 2 m/s 744 mmHg 60%
16:00 +16°C° 0 mm 2 m/s 744 mmHg 64%
17:00 +15°C° 0 mm 2 m/s 745 mmHg 71%
18:00 +14°C° 0 mm 2 m/s 745 mmHg 78%
19:00 +13°C° 0 mm 2 m/s 745 mmHg 85%
20:00 +13°C° 0.1 mm 1 m/s 745 mmHg 87%
21:00 +13°C° 0.1 mm 1 m/s 745 mmHg 89%
22:00 +13°C° 0.1 mm 1 m/s 745 mmHg 91%
23:00 +13°C° 0 mm 1 m/s 745 mmHg 91%

30 Septembrie, Miercuri

Timp Temperatura Precipitaţii Vânt Presiune Umiditate
00:00 +13°C° 0 mm 2 m/s 745 mmHg 92%
01:00 +14°C° 0 mm 2 m/s 745 mmHg 93%
02:00 +14°C° 0.1 mm 2 m/s 745 mmHg 94%
03:00 +14°C° 0.1 mm 2 m/s 745 mmHg 94%
04:00 +14°C° 0.1 mm 2 m/s 745 mmHg 95%
05:00 +14°C° 0 mm 2 m/s 745 mmHg 95%
06:00 +14°C° 0 mm 2 m/s 745 mmHg 95%
07:00 +14°C° 0 mm 2 m/s 745 mmHg 94%
08:00 +15°C° 0 mm 2 m/s 745 mmHg 91%
09:00 +15°C° 0 mm 2 m/s 746 mmHg 87%
10:00 +16°C° 0 mm 2 m/s 746 mmHg 83%
11:00 +17°C° 0 mm 2 m/s 746 mmHg 79%
12:00 +17°C° 0 mm 2 m/s 746 mmHg 76%
13:00 +18°C° 0 mm 3 m/s 746 mmHg 72%
14:00 +18°C° 0 mm 3 m/s 745 mmHg 74%
15:00 +17°C° 0 mm 3 m/s 745 mmHg 77%
16:00 +17°C° 0 mm 3 m/s 745 mmHg 79%
17:00 +14°C° 0 mm 3 m/s 745 mmHg 85%
18:00 +14°C° 0 mm 2 m/s 745 mmHg 90%
19:00 +13°C° 0 mm 2 m/s 745 mmHg 95%
20:00 +13°C° 0 mm 2 m/s 745 mmHg 94%
21:00 +12°C° 0 mm 2 m/s 745 mmHg 94%
22:00 +12°C° 0 mm 2 m/s 744 mmHg 93%
23:00 +12°C° 0 mm 2 m/s 744 mmHg 93%
Arată mai mult